LogoCoinalyze
    Ad-Free Version Hauptseite Märkte Finanzierungsraten
    Futures-Daten
    • Aggregierte Daten (Coins)
    • Einzelne Charts
    • Globale Charts
    Preisalarme
    TA
    Bitcoin Ethereum BNB Ripple Tron ZCash Dogecoin Monero UNUS SED LEO Chainlink Cardano Stellar Lumens Bitcoin Cash Litecoin Hedera Cronos Polkadot Ethereum Classic Algorand Quant Cosmos VeChain Dash Bitcoin SV BitTorrent Terra Decred Tezos Iota The Graph THETA Decentraland Chiliz NEO MultiversX Golem Basic Attention Token Horizen Qtum 0x DigiByte Beam RIF Token FTX Token Holo FUNToken Zilliqa Ontology Nano aelf Enjin Coin Ravencoin Siacoin Mask Network Verge Status WINk Waves IoTeX iExec RLC Power Ledger Steem Kyber Network Crystal Lisk Ark Ardor WOO Network IOST WAX Icon Storj Loopring Wanchain Bitcoin Diamond AdEx Bitcoin Gold Augur OmiseGO NEM MonaCoin BitShares Ren Komodo V Systems Nuls Mithril SOLVE EOS Aion Maker Nebulas HedgeTrade Bread Fetch.ai TomoChain Polygon Fantom Waltonchain GXChain Bytom Metaverse ETP MaidSafeCoin QASH
    Bestellen nach:
    Mehr
    • API
    • Kerzenformationen
    • Spenden
    • Kontakt
    • Sitemap
    • Privacy Policy
    • Disclaimer
    • Theme:
    Deutsch
    • English
    • Français
    • Русский
    • Türkçe
    • Nederlands
    • Português (BR)
    • Español
    • 한국어
    • 简体中文
    • 日本語
     
    Anmelden / Registrieren
    Markets/ Pepe/ PEPE zu USDC/ PEPEUSDC Bybit
    Trades
    WL
    Chat
    Stat
    Neuigkeiten
    ⦷
    AAA
    0.000003401 17364300.00000000 16:00:48
    0.000003369 2462378.00000000 15:14:02
    0.000003372 2462378.00000000 15:12:58
    0.000003389 86751572.00000000 15:00:30
    0.000003389 181190436.00000000 15:00:30
    0.000003389 188139142.00000000 15:00:30
    0.000003389 105057268.00000000 15:00:30
    0.000003404 5519201.00000000 14:53:15
    0.000003408 175768548.00000000 14:30:46
    0.000003409 175768548.00000000 14:30:41
    0.000003406 5036643.00000000 14:30:39
    0.000003423 7532801.00000000 14:19:36
    0.000003421 7886240.00000000 14:19:31
    0.000003419 7886240.00000000 14:19:31
    0.000003417 7886240.00000000 14:19:31
    0.000003421 7998533.00000000 14:19:30
    0.000003433 491113.00000000 13:46:03
    0.000003410 7468204.00000000 13:00:20
    0.000003409 100000000.00000000 12:45:14
    0.000003403 4615259.00000000 12:00:52
    0.000003403 4763404.00000000 12:00:52
    0.000003390 6788665.00000000 11:23:46
    0.000003414 7388416.00000000 11:02:57
    0.000003396 3113213.00000000 11:01:10
    0.000003386 26000000.00000000 10:49:55
    0.000003416 2771977.00000000 10:47:38
    0.000003414 5895175.00000000 10:47:20
    0.000003414 5861696.00000000 10:45:50
    0.000003414 5604682.00000000 10:44:59
    0.000003414 6275620.00000000 10:44:21
    0.000003414 5210634.00000000 10:44:04
    0.000003414 5303611.00000000 10:43:37
    0.000003414 5839726.00000000 10:37:05
    0.000003414 5920970.00000000 10:36:43
    0.000003407 5672317.00000000 10:36:22
    0.000003414 5282564.00000000 10:36:00
    0.000003414 1689448.00000000 10:34:24
    0.000003414 4297463.00000000 10:34:24
    0.000003397 26300000.00000000 10:33:24
    0.000003383 5158279.00000000 10:33:15
    0.000003388 491605.00000000 10:33:15
    0.000003390 319440.00000000 10:33:15
    0.000003396 6477078.00000000 10:33:15
    0.000003400 30000000.00000000 10:33:15
    0.000003400 145658602.00000000 10:33:15
    0.000003405 6326897.00000000 10:32:58
    0.000003400 10885554.00000000 10:32:44
    0.000003400 35598705.00000000 10:32:44
    0.000003400 30008826.00000000 10:32:44
    0.000003400 23242130.00000000 10:32:44
    0.000003400 27949396.00000000 10:32:44
    0.000003400 13827596.00000000 10:32:44
    0.000003410 6857689.00000000 10:29:44
    0.000003410 23900000.00000000 10:29:41
    0.000003411 5320540.00000000 10:29:12
    0.000003411 6206918.00000000 10:28:07
    0.000003413 5802326.00000000 10:27:12
    0.000003411 6041570.00000000 10:26:40
    0.000003411 5286073.00000000 10:26:18
    0.000003411 6598207.00000000 10:26:03
    0.000003409 6139519.00000000 10:24:48
    0.000003410 6332789.00000000 10:24:25
    0.000003410 5844858.00000000 10:24:05
    0.000003414 6062103.00000000 10:23:37
    0.000003414 4850649.00000000 10:19:27
    0.000003414 5293592.00000000 10:18:59
    0.000003413 6115706.00000000 10:18:32
    0.000003413 5426381.00000000 10:17:22
    0.000003414 5160226.00000000 10:12:46
    0.000003414 6158784.00000000 10:11:30
    0.000003400 15000000.00000000 10:11:08
    0.000003400 15800000.00000000 10:11:08
    0.000003414 5366239.00000000 10:10:37
    0.000003400 2541297.00000000 10:10:18
    0.000003400 381261.00000000 10:10:18
    0.000003400 328453.00000000 10:10:18
    0.000003416 6383894.00000000 10:10:16
    0.000003416 5685427.00000000 10:09:39
    0.000003416 5893410.00000000 10:09:28
    0.000003402 2058218.00000000 10:06:13
    0.000003410 2462378.00000000 09:40:02
    0.000003415 2462378.00000000 09:38:14
    0.000003420 30000000.00000000 09:23:43
    0.000003433 491605.00000000 08:42:30
    0.000003438 2036564.00000000 08:41:37
    0.000003449 2065674.00000000 08:16:22
    0.000003439 54719476.00000000 08:01:25
    0.000003440 328453.00000000 08:01:25
    0.000003441 125469399.00000000 08:01:25
    0.000003473 43190325.00000000 07:15:14
    0.000003480 175768548.00000000 04:05:45
    0.000003504 9398474.00000000 03:28:09
    0.000003480 30000000.00000000 02:28:52
    0.000003480 328124.00000000 02:28:52
    0.000003478 491113.00000000 02:28:14
    0.000003474 2027473.00000000 02:24:23
    0.000003452 8397565.00000000 01:52:41
    0.000003433 491605.00000000 01:40:42
    0.000003435 7282260.00000000 01:40:41
    0.000003438 2036515.00000000 01:40:41
    Abmelden
    AAA
    Hilfe
    🙂 🤣 😎 🤗 😛 😉 😜 🤑 🤔 😑 😴 😕 🙃 😲 😇 🙁 😢 😬 😟 😠 🕺 🏃 💪 ✌ 👌 👍 👎 👏 👋 🤝 🍺 🍻 🐋 🐟 🦈 🗽 🚄 ✈ 🛑 🚀 🏦 🌚 ⭐ 🌞 ⚡ 🏆 💰 💲 🔨 ❓ ❗ 💯 🔶 🏁
    ☺
    Anmelden oder Registrieren zum Chatten
    24 Stunden
    Veränderung
    -2.27%
    Volumen
    3,635,709,485
    Hoch
    0.000003510
    Tief
    0.000003369
    7 Tage
    Veränderung
    -11.32%
    Volumen
    34,844,896,765
    Hoch
    0.000004014
    Tief
    0.000003366
    30 Tage
    Veränderung
    +17.15%
    Volumen
    243,376,548,683
    Hoch
    0.000004564
    Tief
    0.000002538
    Pepe price rallies 25% as whale demand and futures interest surge
    Key takeaways Pepe has gained 25% this week, including a combined 22% advance over the previous two days. Seven whale transactions worth more than $1 million each occurred Thursday, the highest...
    coinjournal.net
    Aug 21, 2026 08:41
    PEPE Supply on Exchanges Just Took a Massive Hit – What’s Next?
    A drop in PEPE exchange balances has added to bullish expectations despite muted trader interest.
    cryptopotato.com
    Aug 6, 2026 20:02
    PEPE Exchange Outflows Hit Nearly 2-Year High as Whales Accumulate
    Pepe (PEPE) recorded its largest single-day exchange outflow since November 2024, with 4.54 trillion tokens leaving trading platforms, signaling that holders are moving supply away from immediate...
    beincrypto.com
    Aug 6, 2026 04:57
    Meme Coin Based on White House Shooter Conspiracy Rallies 320%
    $HENRY surged 300% after a 2023 Pepe tweet appeared to name the White House shooter, fueling a viral time-travel meme. The post Meme Coin Based on White House Shooter Conspiracy Rallies 320%...
    beincrypto.com
    Apr 27, 2026 16:11
    PEPE surges 4% as market sentiment improves, eyes Key resistance breakout
    Key takeaways Pepe extends gains on Wednesday, stretching its rally from the 50-day EMA. Derivatives data show heightened retail activity as risk-on sentiment returns to the market. Pepe (PEPE) is...
    coinjournal.net
    Apr 22, 2026 11:44
    Why The PEPE Price Could Stage A 55X Rally To Reach New $0.0001 ATH
    The PEPE price has now started to edge back into bullish conversations after the recent inflows into the crypto market. The last time PEPE’s weekly chart printed the kind of structure now...
    newsbtc.com
    Apr 21, 2026 15:30
    Pepe (PEPE) surges 9%, drawing interest from whales
    Key takeaways PEPE is up 9% in the last 24 hours, making it one of the best performers among the top 50 cryptocurrencies by market cap. The rally comes amid renewed interest from whales and retail...
    coinjournal.net
    Apr 16, 2026 07:40
    Murad Says SPX6900 (SPX) Is Primed for a Rally — Is He Right This Time?
    Crypto influencer Murad Mahmudov claims SPX6900 (SPX) is stabilizing at the same market cap level where Dogecoin (DOGE) and Pepe (PEPE) consolidated before their explosive rallies. The...
    beincrypto.com
    Apr 5, 2026 21:36
    The Shiba Inu Of This Cycle: Analyst Shares Why It Is Better To Buy PEPE Now
    In the bull market cycle of 2021-2022, the Shiba Inu meme coin made waves in a way that changed the face of meme coins forever. This came after Dogecoin’s initial 36,000% rally, and Shiba Inu...
    newsbtc.com
    Apr 4, 2026 07:30
    PEPE Explodes by 18% Amid Altcoin Rally, BTC Tapped $74K: Market Watch
    The frog-themed meme coin is today's biggest gainer, followed by TAO, DOT, and BONK.
    cryptopotato.com
    Mar 16, 2026 10:56
    Should PEPE traders brace for volatility as short squeeze potential builds?
    The memecoin market has seen its collective market capitalization drop by 48% over the past year, and 6.9% over the past month, according to CoinMarketCap. According to Glassnode, the memecoin...
    ambcrypto.com
    Mar 7, 2026 18:00
    Geben Sie einfach das Kommando im Chat ein. Ersetzen Sie dabei nick1 durch den jeweiligen Nick.
    • /ignore nick1 Einen Chat-User ignorieren
    • /unignore nick1 Einen Chat-User nicht mehr ignorieren
    • /ignorelist Ignorierte Chat-User anzeigen